Location: Springfield
(37.2150°N, 93.2980°W)
Time: 06:13:52
(UTC-05:00)

Cosmos 2322 - Pass Details

Date: 19 April 2018
Orbit: 842 x 853 km, 71.0° (Epoch: 21 September)

Event Time Altitude Azimuth Distance (km) Brightness Sun altitude
Rises 20:11:44 0° 198° (SSW) 3,381 6.8 -4.6°
Reaches altitude 10° 20:14:10 10° 198° (SSW) 2,450 6.1 -5.1°
Maximum altitude 20:19:48 85° 112° (ESE) 851 3.7 -6.1°
Drops below altitude 10° 20:25:29 10° 23° (NNE) 2,470 6.1 -7.2°
Sets 20:27:56 0° 23° (NNE) 3,411 6.8 -7.6°
